Starlink 6095

operational
NORAD ID: 56101 Int'l Des: 2023-046 Owner: SPXS Country: US Constellation: starlink
LEOCIRCULAR

About Starlink 6095

Description loading...

Live Position

Loading 3D Globe...

Upcoming Passes

Altitude History

Altitude vs Time

uPlot chart will show altitude changes over time

Two-Line Element Set

1 56101U 23046J 25303.60851835 -.00002379 00000-0 -16106-3 0 9997
2 56101 43.0056 145.8414 0001796 273.4708 86.5929 15.02533703142492
Epoch: Oct 30, 2025 • Age: 17 hours

Current Status

Altitude 567.5 km
Velocity 7.58 km/s
Sub-Earth Point -33.71°S, 62.03°W
Launch Date Mar 29, 2023
Age 2.5 years
Type internet

Technical Details

Classification Payload
Mass 305.00 kg
Dry Mass 290.00 kg
Total Mass 305.00 kg
Length 0.20 m
Diameter 2.80 m
Span 9.00 m
Shape Box + pan
Manufacturer SPXS
Bus Type Starlink
Phase Status In Orbit
Owner/State SPXS/US

Large Constellations

Loading constellations...